Location: Calvin Observatory
(42.9309°N, 85.5886°W)
Time: 20:08:00
(UTC-04:00)

ISS - Visible Passes

Search period start: 20 April 2014 00:00
Search period end: 30 April 2014 00:00
Orbit: 414 x 419 km, 51.6° (Epoch: 20 April)

Date Brightness Start Highest point End Pass type
(mag) Time Alt. Az. Time Alt. Az. Time Alt. Az.
20 Apr -2.6 21:27:30 10° NW 21:30:46 46° NNE 21:33:07 17° E visible
20 Apr -0.9 23:04:31 10° WNW 23:06:00 19° W 23:06:00 19° W visible
21 Apr -2.6 22:15:43 10° WNW 22:18:56 43° SW 22:19:27 39° SSW visible
22 Apr -3.2 21:27:01 10° WNW 21:30:22 75° SW 21:32:52 17° SE visible
23 Apr -1.0 22:15:53 10° W 22:18:05 17° SW 22:19:11 14° SSW visible
24 Apr -1.6 21:26:35 10° WNW 21:29:30 28° SW 21:32:23 10° SSE visible
26 Apr -0.4 21:27:23 10° WSW 21:28:07 11° SW 21:28:51 10° SW visible
